Flag for Argentina Weather past 2 weeks in Río Gallegos, Santa Cruz, Argentina

Now
43 °F

Clear.


Feels Like: 36 °F
Forecast: 37 / 52 °F
Wind: 13 mph from North

Location: Rio Gallegos Aerodrome

Current Time: Apr 27, 2015 at 6:27:40 AM

Latest Report: Apr 27, 2015 at 6:00 AM


Visibility: 10 mi

Pressure: 30.21 "Hg

Humidity: 87%

Dew point: 39 °F

Location of Río GallegosLocation

Historic Weather in Río Gallegos — Graph

°F

Río Gallegos temperature yesterday

Maximum temperature yesterday: 52 °F (at 4:00 PM)
Minimum temperature yesterday: 30 °F (at 8:00 AM)
Average temperature yesterday: 40 °F

Past Weeks' High & Low Weather Summary

 TemperatureHumidityPressure
High72 °F (Apr 22, 3:00 PM)100% (Apr 25, 5:00 AM)30.27 "Hg (Apr 25, 5:00 AM)
Low25 °F (Apr 16, 7:00 AM)24% (Apr 21, 3:00 PM)29.06 "Hg (Apr 19, 5:00 AM)
Average46 °F67%29.65 "Hg
* Reported Apr 12 5:00 AM — Apr 27 5:00 AM, Río Gallegos, Weather by CustomWeather, © 2015

Note: Actual official high and low records may vary slightly from our data, if they occured in-between our weather recording intervals... More about our weather records

Advertising

Río Gallegos weather history for previous 24 hours

 ConditionsComfort  
Time TempWeatherWind HumidityBarometerVisibility
5:00 AM
Mon, Apr 27
39 °FClear.6 mph87%30.21 "Hg10 mi
4:00 AM37 °FClear.No wind87%30.24 "Hg10 mi
3:00 AM39 °FClear.10 mph87%30.24 "Hg10 mi
2:00 AM39 °FClear.2 mph75%30.24 "Hg10 mi
1:00 AM39 °FClear.2 mph75%30.27 "Hg10 mi
12:00 AM36 °FClear.No wind87%30.27 "Hg10 mi
11:00 PM
Sun, Apr 26
36 °FClear.No wind87%30.27 "Hg10 mi
10:00 PM39 °FClear.No wind81%30.27 "Hg10 mi
9:00 PM39 °FClear.No wind87%30.24 "Hg10 mi
8:00 PM41 °FClear.No wind81%30.24 "Hg10 mi
7:00 PM45 °FClear.No wind76%30.15 "Hg10 mi
6:00 PM50 °FClear.No wind58%30.21 "Hg10 mi
5:00 PM52 °FSunny.5 mph47%30.21 "Hg10 mi
4:00 PM52 °FSunny.10 mph54%30.21 "Hg10 mi
3:00 PM50 °FSunny.13 mph54%30.21 "Hg10 mi
2:00 PM48 °FPassing clouds.15 mph58%30.21 "HgN/A
1:00 PM46 °FSunny.17 mph62%30.21 "Hg10 mi
9:00 AM32 °FSunny.7 mph87%30.18 "Hg10 mi
8:00 AM30 °FSunny.10 mph86%30.18 "Hg10 mi
7:00 AM32 °FClear.No wind87%30.18 "Hg10 mi
6:00 AM34 °FClear.2 mph81%30.15 "Hg10 mi
Weather by CustomWeather, © 2015

See weather overviewHow to use our weather pages